QPF
0.00 0.00 0.00 0.00 0.00 0.00 0.00 0.00 0.00 0.00 0.00 0.00 0.00 0.00 0.00 0.00 0.00 0.00 0.00 0.00 0.00 0.00 0.00 0.00 0.00 0.00 0.00 0.00 0.00 0.00 0.00 0.00 0.00 0.00 0.00 0.00 0.00 0.00 0.00 0.00 0.02 0.01 0.01 0.00 0.00
0.00 0.00 0.00 0.00 0.00 0.00 0.00 0.00 0.00 0.00 0.00 0.00 0.00 0.00 0.00 0.00 0.00 0.00 0.00 0.00 0.00 0.00 0.00 0.00 0.00 0.00 0.00 0.00 0.00 0.00 0.01 0.00 0.00 0.00 0.00 0.00 0.00 0.00 0.00 0.00 0.01 0.00 0.01 0.01 0.00
0.00 0.00 0.00 0.00 0.00 0.00 0.00 0.00 0.00 0.00 0.00 0.00 0.00 0.00 0.00 0.00 0.00 0.00 0.00 0.00 0.00 0.00 0.00 0.00 0.00 0.00 0.00 0.00 0.00 0.00 0.00 0.00 0.00 0.00 0.00 0.00 0.00 0.00 0.00 0.00 0.00 0.00 0.00 0.00 0.00
0.00 0.00 0.00 0.00 0.00 0.00 0.00 0.00 0.00 0.00 0.00 0.00 0.00 0.00 0.00 0.00 0.00 0.00 0.00 0.00 0.00 0.00 0.00 0.00 0.00 0.00 0.00 0.00 0.00 0.00 0.00 0.00 0.00 0.00 0.00 0.00 0.00 0.00 0.01 0.01 0.00 0.00 0.00 0.00 0.00
0.00 0.00 0.00 0.00 0.00 0.00 0.00 0.00 0.00 0.00 0.00 0.00 0.00 0.00 0.00 0.00 0.00 0.00 0.00 0.00 0.00 0.00 0.00 0.00 0.00 0.00 0.00 0.00 0.00 0.00 0.00 0.00 0.00 0.00 0.00 0.00 0.00 0.00 0.00 0.00 0.00 0.00 0.00 0.00 0.00
0.00 0.00 0.00 0.00 0.00 0.00 0.00 0.00 0.00 0.00 0.00 0.00 0.00 0.00 0.00 0.00 0.00 0.00 0.00 0.00 0.00 0.00 0.00 0.00 0.00 0.00 0.00 0.00 0.00 0.00 0.00 0.00 0.00 0.00 0.00 0.00 0.00 0.00 0.00 0.00 0.00 0.00 0.00 0.00 0.00
0.00 0.00 0.00 0.00 0.00 0.00 0.00 0.00 0.00 0.00 0.00 0.00 0.00 0.00 0.00 0.00 0.00 0.00 0.00 0.00 0.00 0.00 0.00 0.00 0.00 0.00 0.00 0.00 0.00 0.00 0.00 0.00 0.00 0.00 0.00 0.00 0.01 0.00 0.00 0.00 0.00 0.00 0.00 0.00 0.00
0.00 0.00 0.00 0.00 0.00 0.00 0.00 0.00 0.00 0.00 0.00 0.00 0.00 0.00 0.00 0.00 0.00 0.00 0.00 0.00 0.00 0.00 0.00 0.00 0.00 0.00 0.00 0.00 0.00 0.01 0.00 0.00 0.00 0.00 0.01 0.00 0.04 0.01 0.00 0.00 0.00 0.00 0.00 0.00 0.00
0.00 0.00 0.00 0.00 0.00 0.00 0.00 0.00 0.00 0.00 0.00 0.00 0.00 0.00 0.00 0.00 0.00 0.00 0.00 0.00 0.00 0.00 0.00 0.00 0.00 0.00 0.00 0.00 0.00 0.00 0.00 0.01 0.02 0.00 0.02 0.00 0.02 0.00 0.00 0.00 0.00 0.00 0.00 0.00 0.00
0.00 0.00 0.00 0.00 0.00 0.00 0.00 0.00 0.00 0.00 0.00 0.00 0.00 0.00 0.00 0.00 0.00 0.00 0.00 0.00 0.00 0.00 0.00 0.00 0.00 0.00 0.00 0.00 0.00 0.00 0.01 0.00 0.00 0.00 0.00 0.00 0.01 0.00 0.00 0.00 0.00 0.00 0.00 0.00 0.00
0.00 0.00 0.00 0.00 0.00 0.00 0.00 0.00 0.00 0.00 0.00 0.00 0.00 0.00 0.00 0.00 0.00 0.00 0.00 0.00 0.00 0.00 0.00 0.00 0.00 0.00 0.00 0.00 0.00 0.00 0.02 0.01 0.00 0.00 0.00 0.00 0.00 0.00 0.00 0.00 0.00 0.00 0.00 0.00 0.00
0.00 0.00 0.00 0.00 0.00 0.00 0.00 0.00 0.00 0.00 0.00 0.00 0.00 0.00 0.00 0.00 0.00 0.00 0.00 0.00 0.00 0.00 0.00 0.00 0.00 0.00 0.00 0.00 0.00 0.00 0.00 0.00 0.00 0.00 0.00 0.00 0.00 0.00 0.00 0.00 0.00 0.00 0.00 0.00 0.00
0.00 0.00 0.00 0.00 0.00 0.00 0.00 0.00 0.00 0.00 0.00 0.00 0.00 0.00 0.00 0.00 0.00 0.00 0.00 0.00 0.00 0.00 0.00 0.00 0.00 0.00 0.00 0.00 0.00 0.00 0.00 0.00 0.00 0.00 0.00 0.00 0.00 0.00 0.00 0.00 0.00 0.00 0.00 0.00 0.00
0.00 0.00 0.00 0.00 0.00 0.00 0.00 0.00 0.00 0.00 0.00 0.00 0.00 0.00 0.00 0.00 0.00 0.00 0.00 0.00 0.00 0.00 0.00 0.00 0.00 0.00 0.00 0.00 0.00 0.00 0.00 0.00 0.00 0.00 0.00 0.00 0.00 0.00 0.00 0.00 0.00 0.00 0.00 0.00 0.00
0.00 0.00 0.00 0.00 0.00 0.00 0.00 0.00 0.00 0.00 0.00 0.00 0.00 0.00 0.00 0.00 0.00 0.00 0.00 0.00 0.00 0.00 0.00 0.00 0.00 0.00 0.00 0.00 0.00 0.00 0.00 0.00 0.00 0.00 0.00 0.00 0.00 0.00 0.00 0.00 0.00 0.00 0.00 0.00 0.00
0.00 0.00 0.00 0.00 0.00 0.00 0.00 0.00 0.00 0.00 0.00 0.00 0.00 0.00 0.00 0.00 0.00 0.00 0.00 0.00 0.00 0.00 0.00 0.00 0.00 0.00 0.00 0.00 0.00 0.00 0.00 0.00 0.00 0.00 0.00 0.00 0.00 0.00 0.00 0.01 0.00 0.00 0.00 0.00 0.00
0.00 0.00 0.00 0.00 0.00 0.00 0.00 0.00 0.00 0.00 0.00 0.00 0.00 0.00 0.00 0.00 0.00 0.00 0.00 0.00 0.00 0.00 0.00 0.00 0.00 0.00 0.00 0.00 0.00 0.00 0.00 0.00 0.00 0.00 0.00 0.00 0.00 0.00 0.01 0.04 0.05 0.00 0.00 0.00 0.00
0.00 0.00 0.00 0.00 0.00 0.00 0.00 0.00 0.00 0.00 0.00 0.00 0.00 0.00 0.00 0.00 0.00 0.00 0.00 0.00 0.00 0.00 0.00 0.00 0.00 0.00 0.00 0.00 0.00 0.00 0.00 0.00 0.00 0.00 0.00 0.00 0.00 0.00 0.00 0.00 0.05 0.02 0.00 0.00 0.00
0.00 0.00 0.00 0.00 0.00 0.00 0.00 0.00 0.00 0.00 0.00 0.00 0.00 0.00 0.00 0.00 0.00 0.00 0.00 0.00 0.00 0.00 0.00 0.00 0.00 0.00 0.00 0.00 0.00 0.00 0.00 0.00 0.00 0.00 0.00 0.00 0.00 0.00 0.00 0.00 0.00 0.00 0.00 0.00 0.00
0.00 0.00 0.00 0.00 0.00 0.00 0.00 0.00 0.00 0.00 0.00 0.00 0.00 0.00 0.00 0.00 0.00 0.00 0.00 0.00 0.00 0.00 0.00 0.00 0.00 0.00 0.00 0.00 0.00 0.00 0.00 0.00 0.00 0.00 0.00 0.00 0.01 0.00 0.00 0.00 0.00 0.00 0.00 0.00 0.00
0.00 0.00 0.00 0.00 0.00 0.00 0.00 0.00 0.00 0.00 0.00 0.00 0.00 0.00 0.00 0.00 0.00 0.00 0.00 0.00 0.00 0.00 0.00 0.00 0.00 0.00 0.00 0.00 0.00 0.00 0.00 0.00 0.00 0.00 0.00 0.00 0.00 0.00 0.00 0.00 0.00 0.00 0.00 0.00 0.00
0.00 0.00 0.00 0.00 0.00 0.00 0.00 0.00 0.00 0.00 0.00 0.00 0.00 0.00 0.00 0.00 0.00 0.00 0.00 0.00 0.00 0.00 0.00 0.00 0.00 0.00 0.00 0.00 0.00 0.00 0.00 0.00 0.00 0.00 0.00 0.00 0.00 0.00 0.00 0.00 0.00 0.00 0.00 0.00 0.00
0.00 0.00 0.00 0.00 0.00 0.00 0.00 0.00 0.00 0.00 0.00 0.00 0.00 0.00 0.00 0.00 0.00 0.00 0.00 0.00 0.00 0.00 0.00 0.00 0.00 0.00 0.00 0.00 0.00 0.00 0.00 0.00 0.00 0.00 0.00 0.00 0.00 0.00 0.00 0.00 0.00 0.00 0.00 0.00 0.00
0.00 0.00 0.00 0.00 0.00 0.00 0.00 0.00 0.00 0.00 0.00 0.00 0.00 0.00 0.00 0.00 0.00 0.00 0.00 0.00 0.00 0.00 0.00 0.00 0.00 0.00 0.00 0.00 0.00 0.00 0.00 0.00 0.00 0.00 0.00 0.00 0.00 0.00 0.00 0.00 0.00 0.00 0.00 0.00 0.00
0.00 0.00 0.00 0.00 0.00 0.00 0.00 0.00 0.00 0.00 0.00 0.00 0.00 0.00 0.00 0.00 0.00 0.00 0.00 0.00 0.00 0.00 0.00 0.00 0.00 0.00 0.00 0.00 0.00 0.00 0.00 0.00 0.00 0.00 0.00 0.00 0.00 0.00 0.00 0.00 0.00 0.00 0.00 0.00 0.00
0.00 0.00 0.00 0.00 0.00 0.00 0.00 0.00 0.00 0.00 0.00 0.00 0.00 0.00 0.00 0.00 0.00 0.00 0.00 0.00 0.00 0.00 0.00 0.00 0.00 0.00 0.00 0.00 0.00 0.00 0.00 0.00 0.00 0.00 0.00 0.00 0.00 0.00 0.00 0.01 0.00 0.00 0.00 0.00 0.00
0.00 0.00 0.00 0.00 0.00 0.00 0.00 0.00 0.00 0.00 0.00 0.00 0.00 0.00 0.00 0.00 0.00 0.00 0.00 0.00 0.00 0.00 0.00 0.00 0.00 0.00 0.00 0.00 0.00 0.00 0.00 0.00 0.00 0.00 0.00 0.00 0.00 0.00 0.00 0.02 0.01 0.00 0.00 0.00 0.00
MSLP
1018.30 1017.77 1017.20 1016.67 1016.09 1015.49 1014.91 1014.31 1013.54 1012.85 1012.45 1011.99 1011.13 1010.66 1010.15 1009.42 1007.77 1006.56 1005.38 1003.95 1003.98 1004.05 1004.53 1003.34 1002.86 1001.67 1000.95 1000.40 1000.22 1000.11 1005.11 1003.11 1001.10 1001.12 1001.63 1001.77 1001.76 1002.86 1003.46 1004.15 1005.34 1005.81 1006.74 1009.19 1010.91
1018.38 1017.83 1017.24 1016.67 1016.11 1015.47 1014.79 1014.20 1013.61 1012.79 1011.98 1011.46 1011.09 1010.47 1010.03 1009.53 1007.57 1005.15 1004.44 1003.86 1003.76 1004.00 1003.87 1002.37 1001.06 1000.39 999.89 998.87 998.43 999.04 1001.21 1000.29 999.43 999.81 999.87 1000.37 1000.69 1001.93 1003.12 1004.30 1005.11 1005.91 1007.04 1009.22 1010.62
1018.51 1017.93 1017.33 1016.77 1016.10 1015.45 1014.76 1014.04 1013.44 1012.83 1012.03 1011.25 1010.68 1010.35 1009.77 1009.29 1006.55 1003.27 1003.97 1004.05 1003.91 1004.00 1003.27 1001.76 1001.18 1000.39 999.34 997.95 997.41 997.93 999.22 999.05 998.27 998.57 999.03 999.48 1000.61 1001.40 1002.59 1003.83 1005.18 1006.50 1008.08 1009.50 1009.89
1018.56 1018.00 1017.38 1016.70 1016.09 1015.39 1014.69 1013.95 1013.18 1012.59 1012.03 1011.38 1010.75 1010.27 1009.74 1008.83 1005.41 1003.37 1003.83 1004.05 1004.21 1004.02 1003.32 1001.70 1000.77 999.70 998.47 997.61 997.50 998.04 997.77 997.46 997.81 998.04 998.97 1000.11 1000.58 1002.25 1003.25 1005.26 1004.89 1006.52 1008.28 1009.24 1009.74
1018.63 1017.98 1017.32 1016.62 1015.89 1015.16 1014.45 1013.76 1013.08 1012.23 1011.66 1011.33 1010.86 1010.47 1009.06 1007.15 1003.86 1003.39 1003.71 1003.92 1004.17 1004.00 1002.78 1001.35 1000.24 999.32 998.53 998.02 997.65 998.13 997.70 997.82 998.47 998.72 999.32 999.95 1000.36 1001.70 1003.07 1003.86 1005.13 1006.53 1007.88 1008.70 1009.51
1018.67 1017.99 1017.23 1016.41 1015.61 1014.79 1014.04 1013.36 1012.74 1012.15 1011.21 1010.98 1010.81 1010.62 1009.06 1005.52 1002.60 1002.75 1003.06 1003.48 1003.00 1002.93 1002.07 1001.04 1000.13 999.90 999.59 998.66 998.71 999.71 998.64 997.95 998.42 999.24 999.69 1000.07 1001.43 1001.79 1003.18 1003.82 1005.15 1006.58 1007.63 1008.71 1009.51
1018.63 1017.85 1017.07 1016.23 1015.29 1014.36 1013.51 1012.81 1012.21 1011.67 1011.03 1010.49 1010.59 1010.06 1007.50 1003.78 1001.72 1002.03 1002.40 1002.31 1002.39 1001.92 1001.14 1000.72 1000.29 1000.25 999.85 999.15 999.63 999.19 999.05 998.29 998.41 999.13 999.81 1000.44 1001.97 1002.45 1003.52 1004.01 1005.31 1006.38 1007.55 1008.39 1009.25
1018.69 1017.90 1017.04 1016.05 1015.01 1013.91 1012.99 1012.13 1011.50 1011.06 1010.57 1010.23 1010.17 1009.23 1005.62 1002.67 1002.40 1002.12 1001.69 1001.61 1001.55 1001.33 1001.08 1000.98 1000.94 1000.73 1000.33 999.74 999.35 1000.09 999.96 998.79 999.71 999.64 1000.48 1000.93 1005.17 1004.37 1003.80 1004.20 1005.32 1006.08 1006.93 1007.86 1008.45
1018.70 1018.02 1017.14 1016.02 1014.85 1013.51 1012.44 1011.27 1010.35 1010.03 1010.03 1009.97 1009.57 1007.71 1003.86 1002.05 1002.01 1001.46 1001.42 1001.38 1001.07 1000.95 1001.02 1001.04 1001.07 1000.74 1000.26 999.78 999.23 998.69 998.59 999.94 1000.62 999.69 1000.84 1000.48 1003.75 1004.07 1003.69 1003.99 1005.00 1005.73 1006.45 1007.52 1008.23
1018.68 1017.79 1017.01 1016.11 1014.81 1013.33 1012.06 1009.92 1008.81 1009.41 1009.43 1008.82 1007.69 1006.37 1002.99 1001.11 1000.63 1000.84 1001.05 1000.98 1000.85 1000.79 1000.64 1000.72 1000.72 1000.44 1000.05 999.65 998.67 998.99 1000.33 1001.03 1000.60 999.53 999.71 999.95 1001.27 1002.83 1002.97 1003.60 1004.41 1005.23 1005.88 1007.13 1007.99
1018.83 1017.85 1016.97 1015.74 1014.71 1013.29 1012.25 1008.27 1008.43 1008.69 1007.31 1005.90 1004.31 1003.48 1001.56 1000.52 1000.84 1000.53 1000.15 1000.19 1000.60 1000.63 1000.01 999.97 999.97 999.50 999.23 998.85 998.74 999.47 1000.69 1002.33 1000.89 999.59 998.79 998.01 999.96 1001.04 1001.72 1002.77 1003.65 1004.72 1005.10 1006.24 1007.21
1018.77 1017.90 1017.11 1015.98 1014.31 1013.27 1012.20 1010.17 1010.36 1010.23 1007.78 1005.57 1004.06 1002.99 1002.15 1001.35 1000.75 1000.53 1000.51 1000.39 1000.01 999.70 999.80 999.75 998.65 998.88 998.86 998.47 998.56 999.22 1001.01 1001.24 1001.27 997.78 997.16 997.23 998.13 999.19 1000.66 1001.32 1002.09 1003.26 1004.41 1004.99 1006.49
1018.78 1017.92 1016.91 1015.67 1014.15 1012.21 1010.92 1010.68 1010.08 1009.53 1007.79 1003.92 1002.16 1001.16 1000.95 1001.17 1000.38 1000.09 999.85 999.58 999.36 999.29 998.75 998.25 997.99 998.11 998.03 997.68 997.69 997.62 998.70 998.72 998.25 997.86 996.25 996.26 996.65 998.54 999.54 1000.35 1001.48 1002.60 1003.72 1004.25 1004.82
1018.71 1018.01 1017.01 1015.84 1013.90 1012.15 1010.29 1010.52 1009.95 1009.50 1006.99 1001.81 999.41 999.00 999.27 999.79 999.17 999.75 999.49 999.14 998.76 998.23 998.16 997.46 997.39 997.01 996.73 996.63 996.75 996.33 996.41 996.28 996.63 995.63 994.86 995.21 995.68 996.96 997.93 998.95 999.82 1001.13 1002.41 1003.51 1004.21
1018.56 1017.95 1017.22 1016.79 1015.17 1011.93 1011.13 1010.63 1010.14 1009.26 1005.19 999.60 997.24 998.69 998.36 998.57 998.51 998.12 998.65 998.64 997.97 997.79 997.63 996.38 996.39 996.02 995.63 995.32 995.76 995.47 994.95 994.73 994.63 994.50 994.56 994.42 995.07 995.11 996.23 997.19 998.13 999.19 1000.70 1002.07 1003.14
1018.40 1017.85 1017.66 1014.53 1013.91 1011.92 1011.19 1010.62 1009.90 1008.17 1003.44 999.98 998.39 998.43 998.40 997.99 997.91 997.41 997.64 998.33 997.83 997.76 996.93 996.27 995.50 995.26 994.84 994.87 994.70 995.08 994.65 994.38 994.21 994.37 993.91 993.90 994.06 994.05 995.07 996.29 997.05 998.06 999.02 1000.35 1001.83
1018.35 1017.49 1017.46 1015.98 1013.23 1011.87 1011.33 1010.34 1008.74 1005.95 1001.98 999.93 998.47 998.15 997.92 997.67 997.65 997.37 997.10 997.07 997.23 997.06 996.51 995.92 995.12 994.42 994.26 994.03 993.94 994.20 994.23 993.89 994.02 994.22 993.45 993.54 993.78 994.70 995.61 997.06 998.24 996.99 997.67 998.87 1000.13
1018.09 1016.82 1015.23 1013.88 1012.94 1012.13 1011.40 1010.23 1007.58 1004.26 1002.27 1000.55 999.53 998.33 998.20 997.73 997.13 997.00 997.15 996.22 996.72 996.61 995.83 995.31 994.35 993.87 993.27 993.08 993.11 993.11 993.45 993.03 993.09 993.03 993.09 993.79 994.15 995.06 996.57 997.69 996.53 996.94 996.24 997.68 998.98
1017.79 1014.70 1012.40 1011.87 1012.02 1012.06 1011.22 1009.13 1006.59 1004.78 1003.35 1002.59 1001.61 1000.17 999.53 998.98 998.02 997.07 996.37 996.28 995.69 996.22 995.71 994.67 993.89 993.03 992.99 992.50 992.75 992.56 992.35 993.03 992.87 992.73 993.61 996.16 995.51 997.40 996.58 995.47 993.62 994.37 995.23 996.40 997.87
1017.76 1014.90 1012.06 1010.97 1011.74 1011.63 1010.73 1008.61 1006.88 1005.30 1004.49 1004.51 1003.66 1001.90 1000.60 999.54 998.43 997.99 997.07 996.44 996.09 995.47 995.99 995.17 994.01 992.90 992.12 992.31 991.83 991.88 992.45 992.57 992.42 992.49 993.68 996.48 997.26 996.68 996.48 994.99 993.05 992.79 993.95 995.29 996.95
1017.05 1013.06 1010.66 1011.15 1011.36 1011.09 1009.73 1008.13 1006.86 1005.90 1005.74 1005.99 1005.39 1004.04 1002.46 1001.01 999.56 998.36 997.39 996.92 996.41 995.95 995.36 995.57 994.81 992.88 991.78 990.93 991.08 991.56 991.50 991.63 992.06 992.27 992.73 995.09 996.38 995.13 995.84 994.84 992.25 992.01 992.95 994.35 996.04
1015.97 1012.21 1010.68 1011.31 1010.94 1009.77 1008.87 1007.89 1007.72 1006.59 1006.69 1006.95 1006.81 1005.85 1004.28 1002.72 1001.43 1000.14 998.36 998.24 998.66 998.05 996.85 995.77 994.98 993.30 991.47 990.56 990.94 991.02 991.31 991.48 991.09 991.64 992.09 993.13 994.98 995.16 995.43 994.29 991.57 991.40 992.37 993.99 995.56
1015.09 1011.85 1010.23 1011.01 1010.02 1008.68 1008.19 1008.10 1007.69 1007.65 1007.59 1007.23 1006.75 1006.28 1005.52 1004.59 1003.70 1002.25 1000.49 999.92 999.89 999.68 999.85 999.09 995.90 994.17 992.32 990.53 989.82 990.15 990.46 990.89 991.03 991.26 991.56 992.50 994.20 995.76 995.34 993.94 991.09 991.37 992.40 993.66 995.23
1015.66 1011.43 1010.11 1010.09 1009.87 1009.49 1009.12 1009.19 1009.36 1008.10 1008.13 1008.01 1007.48 1006.79 1006.09 1005.50 1004.98 1003.84 1002.35 1000.87 1000.88 1000.75 1000.80 1000.51 997.95 995.29 992.65 990.96 989.83 989.97 990.31 990.34 990.36 990.11 990.76 991.44 992.92 994.14 994.41 994.00 992.02 991.95 992.85 993.85 995.11
1015.73 1012.57 1011.76 1010.45 1009.89 1009.92 1009.47 1009.33 1008.97 1008.23 1007.91 1008.03 1007.92 1007.81 1007.20 1006.33 1005.61 1004.87 1003.98 1002.89 1001.97 1001.27 1001.09 1000.35 998.64 996.77 994.27 992.35 990.55 989.56 989.83 989.83 989.45 989.79 989.85 990.43 991.04 992.46 993.64 996.19 994.07 992.67 993.37 994.15 995.24
1016.33 1014.73 1013.76 1012.23 1011.35 1010.81 1010.50 1010.21 1009.67 1008.85 1008.72 1008.19 1008.28 1007.77 1007.45 1007.17 1007.11 1006.59 1006.49 1004.65 1003.55 1002.35 1001.61 1000.90 999.24 997.79 995.26 993.55 991.38 989.37 988.88 989.24 989.15 989.32 989.55 990.01 991.52 992.92 993.61 993.43 994.44 993.20 993.59 994.21 995.15
1016.86 1016.01 1015.47 1013.56 1011.97 1011.10 1010.42 1010.78 1010.01 1009.68 1009.39 1009.21 1009.09 1009.04 1008.65 1008.76 1008.67 1008.43 1007.79 1006.70 1005.81 1004.84 1003.74 1002.76 1000.83 999.00 996.18 994.49 992.34 989.66 987.97 988.13 988.81 988.81 989.00 989.41 991.80 993.03 994.58 996.15 994.78 993.55 993.63 994.03 994.76
Thickness
5703 5708 5713 5718 5724 5730 5736 5743 5752 5759 5764 5770 5779 5786 5792 5801 5817 5830 5826 5847 5851 5854 5851 5856 5856 5863 5870 5861 5870 5873 5762 5791 5825 5823 5813 5835 5831 5839 5843 5828 5827 5831 5824 5809 5803
5700 5705 5710 5716 5721 5727 5734 5740 5748 5757 5766 5772 5778 5785 5791 5798 5815 5827 5845 5851 5853 5853 5850 5851 5851 5864 5856 5866 5875 5857 5805 5820 5855 5848 5840 5847 5843 5838 5830 5822 5819 5821 5826 5813 5805
5697 5702 5706 5711 5718 5724 5731 5739 5746 5753 5762 5771 5778 5783 5790 5797 5812 5833 5847 5847 5851 5852 5856 5864 5862 5858 5850 5873 5880 5867 5829 5843 5862 5861 5865 5853 5845 5852 5834 5817 5819 5810 5807 5805 5808
5693 5697 5702 5708 5714 5721 5728 5736 5744 5751 5758 5766 5774 5780 5787 5796 5782 5838 5845 5846 5847 5850 5850 5854 5854 5848 5851 5858 5878 5850 5869 5873 5869 5873 5862 5843 5854 5833 5824 5807 5836 5824 5812 5808 5805
5686 5692 5698 5704 5711 5718 5726 5733 5740 5749 5756 5761 5768 5774 5789 5791 5809 5844 5844 5845 5845 5843 5842 5847 5845 5850 5843 5860 5869 5851 5870 5873 5869 5866 5862 5862 5851 5840 5833 5842 5840 5828 5817 5811 5806
5679 5686 5693 5700 5708 5715 5723 5730 5738 5745 5754 5759 5763 5766 5777 5778 5840 5844 5848 5843 5845 5842 5844 5852 5848 5857 5846 5854 5850 5847 5857 5872 5868 5860 5860 5849 5840 5845 5836 5846 5832 5822 5815 5809 5804
5672 5678 5686 5694 5703 5713 5721 5728 5735 5743 5750 5756 5758 5764 5774 5800 5841 5847 5846 5844 5848 5848 5841 5855 5860 5846 5849 5841 5854 5850 5845 5865 5866 5861 5851 5858 5827 5825 5836 5840 5825 5820 5814 5810 5805
5661 5669 5677 5686 5697 5708 5719 5728 5734 5740 5746 5751 5754 5761 5772 5829 5831 5833 5846 5842 5852 5855 5852 5856 5858 5846 5842 5857 5850 5819 5835 5832 5845 5854 5850 5845 5757 5810 5840 5832 5819 5819 5816 5811 5811
5649 5657 5665 5676 5688 5701 5713 5726 5735 5740 5742 5745 5751 5758 5776 5826 5811 5835 5839 5826 5840 5847 5850 5853 5845 5833 5839 5826 5825 5847 5832 5818 5819 5860 5840 5845 5790 5816 5840 5831 5819 5819 5817 5810 5808
5639 5647 5654 5662 5675 5690 5704 5725 5737 5735 5739 5746 5755 5749 5791 5797 5821 5825 5834 5835 5826 5830 5827 5827 5824 5813 5821 5818 5800 5819 5803 5803 5816 5852 5851 5840 5826 5822 5838 5830 5823 5820 5820 5810 5805
5630 5638 5644 5653 5663 5678 5689 5723 5728 5722 5741 5744 5758 5760 5784 5810 5817 5816 5831 5825 5822 5813 5796 5819 5798 5792 5816 5833 5839 5826 5802 5764 5817 5849 5850 5863 5831 5839 5843 5835 5828 5821 5822 5815 5809
5626 5631 5636 5644 5657 5666 5677 5688 5686 5692 5702 5737 5751 5762 5780 5791 5781 5801 5820 5795 5799 5786 5807 5799 5790 5820 5833 5839 5836 5820 5780 5790 5800 5857 5872 5866 5851 5850 5848 5846 5842 5831 5824 5824 5814
5620 5624 5632 5642 5654 5668 5676 5672 5684 5689 5682 5728 5754 5762 5776 5776 5775 5785 5805 5801 5792 5786 5798 5793 5813 5833 5828 5829 5828 5841 5811 5820 5831 5830 5875 5869 5856 5838 5851 5855 5847 5841 5834 5832 5829
5613 5617 5625 5634 5650 5662 5670 5672 5676 5677 5662 5723 5751 5766 5777 5777 5770 5800 5804 5800 5793 5786 5799 5804 5829 5824 5826 5824 5835 5824 5858 5856 5843 5851 5838 5875 5825 5849 5854 5849 5851 5847 5839 5832 5832
5607 5611 5616 5619 5630 5651 5656 5664 5668 5665 5641 5739 5757 5769 5775 5763 5783 5789 5810 5796 5782 5790 5799 5800 5813 5818 5817 5832 5845 5833 5870 5870 5871 5861 5856 5860 5839 5857 5866 5851 5856 5858 5851 5844 5842
5600 5603 5604 5626 5629 5644 5651 5656 5656 5638 5641 5712 5740 5734 5740 5757 5770 5788 5786 5794 5802 5787 5802 5806 5840 5833 5835 5848 5857 5861 5856 5862 5868 5855 5828 5857 5858 5866 5859 5865 5867 5868 5866 5860 5852
5591 5597 5596 5605 5623 5636 5640 5641 5628 5634 5705 5701 5718 5728 5730 5737 5750 5762 5764 5766 5759 5750 5761 5793 5807 5837 5847 5834 5855 5851 5838 5813 5808 5812 5819 5873 5862 5862 5868 5846 5842 5871 5873 5872 5867
5584 5593 5603 5612 5618 5624 5625 5619 5614 5664 5681 5710 5713 5722 5709 5730 5743 5751 5750 5757 5773 5774 5775 5767 5771 5816 5843 5836 5834 5842 5840 5821 5790 5809 5834 5865 5843 5858 5852 5843 5840 5857 5887 5881 5873
5577 5600 5616 5620 5615 5613 5606 5604 5623 5645 5670 5658 5674 5681 5689 5713 5728 5737 5748 5751 5774 5777 5760 5772 5781 5838 5843 5854 5850 5837 5828 5860 5838 5857 5832 5800 5845 5842 5857 5870 5898 5886 5888 5883 5878
5568 5586 5604 5615 5606 5600 5591 5593 5613 5639 5645 5641 5634 5668 5672 5697 5712 5718 5728 5755 5760 5784 5789 5783 5773 5822 5841 5850 5856 5845 5862 5825 5837 5801 5798 5776 5783 5813 5835 5865 5899 5901 5891 5888 5884
5564 5589 5608 5602 5597 5584 5577 5590 5606 5625 5616 5613 5618 5631 5653 5672 5696 5707 5725 5749 5763 5770 5791 5785 5780 5798 5835 5826 5824 5831 5830 5843 5850 5847 5822 5795 5795 5848 5852 5855 5904 5907 5899 5895 5888
5563 5577 5599 5590 5572 5581 5575 5587 5576 5599 5601 5600 5605 5614 5630 5653 5660 5678 5704 5721 5729 5739 5744 5774 5780 5774 5802 5849 5852 5846 5834 5840 5826 5819 5845 5839 5812 5849 5850 5865 5907 5910 5905 5901 5894
5560 5578 5592 5578 5562 5572 5577 5574 5579 5576 5578 5585 5591 5605 5620 5626 5629 5651 5677 5698 5707 5714 5704 5725 5754 5755 5780 5824 5849 5830 5842 5846 5852 5855 5832 5823 5821 5843 5847 5856 5907 5907 5904 5899 5893
5549 5569 5576 5572 5570 5560 5554 5551 5547 5571 5566 5571 5578 5592 5600 5610 5625 5633 5657 5682 5691 5697 5699 5712 5732 5748 5769 5798 5838 5820 5828 5843 5847 5833 5839 5847 5851 5852 5851 5852 5895 5900 5898 5895 5889
5542 5555 5554 5551 5554 5551 5552 5550 5548 5555 5569 5568 5567 5573 5581 5588 5604 5617 5644 5653 5674 5687 5695 5706 5711 5743 5776 5803 5831 5839 5827 5834 5837 5847 5839 5860 5869 5868 5857 5809 5868 5895 5889 5887 5881
5524 5527 5531 5537 5540 5538 5532 5534 5538 5550 5551 5556 5556 5567 5573 5577 5584 5587 5588 5623 5637 5666 5671 5696 5703 5732 5753 5783 5808 5824 5841 5836 5841 5849 5856 5864 5848 5865 5861 5872 5859 5882 5883 5881 5879
5514 5515 5509 5518 5529 5531 5533 5525 5534 5539 5544 5547 5546 5548 5557 5556 5558 5569 5583 5601 5614 5628 5647 5664 5689 5709 5727 5770 5785 5789 5835 5840 5838 5854 5859 5846 5844 5851 5838 5813 5845 5878 5882 5882 5883